Regional Weather Roundup
Issued by NWS Wakefield, VA

Home | Current Version | Previous Version | Graphics & Text | Print | Product List | Glossary On
Versions: 1 2 3 4 5 6 7 8 9 10 11 12 13 14 15 16 17 18 19 20 21 22 23 24 25 26 27 28 29 30 31 32 33 34 35 36 37 38 39 40 41 42 43 44 45 46 47 48 49 50
000
ASUS41 KAKQ 070114
RWRAKQ

REGIONAL WEATHER ROUNDUP
NATIONAL WEATHER SERVICE WAKEFIELD VA
900 PM EDT WED MAY 06 2015

Note: "fair" indicates few or no clouds below 12,000 feet with no
significant weather and/or obstructions to visibility. * = Denotes
station may not report precipitation (e.g., rain,snow,etc.),
thunder or fog.

VAZ042-051-052>054-056-070200-
NORTHERN VIRGINIA

CITY           SKY/WX    TMP DP  RH WIND       PRES   REMARKS
WASH NATIONAL  CLOUDY    75  61  61 E9        30.18R
DULLES         MOCLDY    66  64  93 NW6       30.18R
FORT BELVOIR   MOCLDY    71  60  68 CALM      30.17R
QUANTICO       CLOUDY    70  63  78 S7        30.16R
FREDERICKSBRG* MOCLDY    74  63  67 SE3       30.14S
STAFFORD*      MOCLDY    69  32  25 CALM      30.19R
WARRENTON      CLOUDY    65  65  98 CALM      30.17R
CULPEPER*      CLOUDY    64  62  94 N5        30.18R
MANASSAS*      CLEAR     66  66 100 N7        30.17R
LEESBURG*      CLOUDY    68  68 100 N6        30.20R
WINCHESTER     CLOUDY    70  54  56 N12G20    30.22R THUNDER
FRONT ROYAL*   MOCLDY    64  63  94 N7        30.18R
LURAY*         CLOUDY    64  64 100 CALM      30.17R
$$

VAZ048-049-060>072-079>083-070200-
CENTRAL AND SOUTH CENTRAL VIRGINIA

CITY           SKY/WX    TMP DP  RH WIND       PRES   REMARKS
RICHMOND       CLOUDY    73  59  61 SE9       30.15R
CHESTERFIELD*  FAIR      70  54  56 S3        30.16R
PETERSBURG*    MOCLDY    73  56  56 SE3       30.16R
HANOVER        MOCLDY    71  63  75 E3        30.16R
TAPPAHANNOCK*  PTCLDY    71  54  55 CALM      30.16R
QUINTON*       FAIR      71  60  67 E3        30.15R
CHARLOTTSVILLE TSTM      65  60  84 E8G26     30.16F
GORDONSVILLE*  CLOUDY    64  62  95 CALM      30.17F
ORANGE*        CLOUDY    64  63  94 S3        30.18F
LOUISA*        RAIN      72  63  73 N9G18     30.16R
BUMPASS*       CLOUDY    74  65  74 N3        30.16R
FARMVILLE*     MOCLDY    74  61  64 CALM      30.13R
CREWE*         FAIR      70  60  70 S3        30.15R
FORT PICKETT*  FAIR      72  59  64 S8        30.15R
CHASE CITY*    FAIR      71  64  79 CALM      30.15R
CLARKSVILLE*   FAIR      68  59  73 CALM      30.14R
SOUTH HILL*    MOCLDY    70  58  65 CALM      30.21R
LAWRENCEVILLE* FAIR      68  60  74 CALM      30.15R
EMPORIA*       MOCLDY    64  57  77 CALM      30.17R
$$

VAZ088>098-070200-
SOUTHEAST VIRGINIA

CITY           SKY/WX    TMP DP  RH WIND       PRES   REMARKS
NORFOLK        CLOUDY    69  56  62 S7        30.16S
VIRGINIA BEACH CLOUDY    70  57  63 SE7       30.16S
NORFOLK NAVAL  CLOUDY    74  56  53 SE7       30.17S
WEST POINT*    MOCLDY    70  57  62 E5        30.17R
SALUDA*        FAIR      66  57  71 SE3       30.16R
NEWPORT NEWS   CLOUDY    75  58  55 S5        30.16R
LANGLEY AFB    MOCLDY    70  58  64 SE5       30.15R
FORT EUSTIS    MOCLDY    71  59  66 SE5       30.14R
WILLIAMSBURG*  MOCLDY    73  63  68 S5        30.17R
HR EXEC AP*    FAIR      68  55  64 SE3       30.17F
FRANKLIN*      MOCLDY    69  57  67 SE3       30.16S
WAKEFIELD      MOCLDY    70  57  63 CALM      30.16R
$$

VAZ020-022-025-037-045-070200-
WEST CENTRAL AND SOUTHWEST VIRGINIA

CITY           SKY/WX    TMP DP  RH WIND       PRES   REMARKS
STAUNTON*      MOCLDY    68  60  75 N3        30.19R
WAYNESBORO*    CLOUDY    69  56  65 CALM      30.17R
HOT SPRINGS VA CLOUDY    65  50  59 S3        30.26S
LYNCHBURG      MOCLDY    63  59  87 CALM      30.17R
DANVILLE       MOCLDY    75  57  53 SE3       30.14R
SOUTH BOSTON*  FAIR      72  59  64 S5        30.14R
MARTINSVILLE   PTCLDY    70  61  72 CALM      30.18R
ROANOKE        CLOUDY    63  59  87 SE5       30.19S
BLACKSBURG     PTCLDY    65  56  73 E5        30.23R
DUBLIN*        PTCLDY    71  56  58 CALM      30.21R
MARION*        MOCLDY    64  58  82 CALM      30.24R
HILLSVILLE*    MOCLDY    67  53  61 E3        30.22R
RICHLANDS*     MOCLDY    65  55  69 CALM      30.21R
WISE*          CLOUDY    68  50  52 CALM      30.22R
ABINGDON*      PTCLDY    68  55  61 CALM      30.18S
$$

MDZ021>025-VAZ099-100-070200-
SOUTHERN MARYLAND AND THE DELMARVA PENINSULA

CITY           SKY/WX    TMP DP  RH WIND       PRES   REMARKS
PATUXENT RIVER MOCLDY    65  59  81 SE7       30.16R
BAY BRIDGE APT   N/A    N/A N/A N/A E9        30.19R
LEONARDTOWN    PTCLDY    66  55  68 SE5       30.18S
DOVER          PTCLDY    60  57  89 SE6       30.17S
GEORGETOWN     CLEAR     56  50  80 E9        30.22R
EASTON         CLEAR     64  54  68 E7        30.23R
CAMBRIDGE      CLEAR     64  52  63 E7        30.18S
SALISBURY      PTCLDY    58  52  80 E5        30.20R
OCEAN CITY     FAIR      55  51  86 NE7       30.21R
WALLOPS ISLAND MOCLDY    59  57  93 E9        30.20R
ACCOMACK*      MOCLDY    64  59  82 SE6       30.18S
$$

NCZ012>017-030>032-070200-
NORTH CENTRAL AND EASTERN NORTH CAROLINA

CITY           SKY/WX    TMP DP  RH WIND       PRES   REMARKS
ROANOKE RAPIDS FAIR      66  59  77 CALM      30.15S
RALEIGH        MOCLDY    71  52  50 SE3       30.15R
ELIZABETH CITY CLOUDY    65  59  81 E6        30.17S
AHOSKIE*       MOCLDY    65  58  80 CALM      30.17R
EDENTON*       CLOUDY    65  59  81 CALM      30.16S
CURRITUCK*     CLOUDY    65  56  72 CALM      30.18S
KILL DEVIL HLS CLOUDY    63  58  86 CALM      30.17R
MANTEO         CLOUDY    64  61  90 NE5       30.18R
CAPE HATTERAS  CLOUDY    66  59  78 E9        30.15S
TARBORO*       FAIR      68  56  65 SE3       30.16S
GOLDSBORO      CLOUDY    65  55  69 E3        30.12S
WASHINGTON       N/A     65  57  76 CALM      30.16R
GREENVILLE     CLOUDY    68  57  68 SE3       30.16S
NEW BERN       CLOUDY    67  58  72 E5        30.15S
WILMINGTON     CLOUDY    65  58  78 NE6       30.12S
$$

VAZ048-070200-
ELSEWHERE

CITY           SKY/WX    TMP DP  RH WIND       PRES   REMARKS
HARRISBURG PA  CLOUDY    60  53  77 CALM      30.21R
BALTIMORE      MOCLDY    69  54  58 E9        30.18R
ANNAPOLIS      MOCLDY    68  54  60 SE12      30.18R
ANDREWS AFB    MOCLDY    69  59  69 E7        30.18R
PHILADELPHIA   MOCLDY    65  50  58 E8        30.23R
HENDERSON NC   MOCLDY    71  55  57 CALM      30.16R
GREENSBORO     PTCLDY    72  56  57 S6        30.14R
ROCKY MOUNT    CLOUDY    69  54  58 SE3       30.15R
$$

VAZ100-070200-
MARINE

STATION/POSITION TIME  TEMP    WIND        PRES    WAVE   SWELL
                       AIR SEA DIR/SP/G            HT/PER HT/PER
                 (UTC) (F)     (DEG/KT/KT) (MB)    (FT/S) (FT/S)
BRANDYWINE LGT   0000   60 58  110/ 12/ 13 1022.7
CAPE MAY NJ      0000   59 63   70/  5/  9 1022.6R
LEWES DE         0000   56 61  110/  6/  9 1023.2R
15NM E FENWICK I 0050   54 55              1022.5R   2/11
OCEAN-CITY-INLET 0000   55 55   70/  4/  9 1022.4F
WACHAPREAGUE VA  0000   67 72  180/  4/  6 1021.8R
THOMAS POINT MD  0100   67 60  100/ 15/ 17 1022.6R
GOOSES REEF MD   0100   67 65                N/A     1/ 2
COVE POINT MD    0000   68     200/  7/  8 1021.7R
SOLOMONS ISLAND  0000      63                N/A
BISHOPS HEAD MD  0000   69 71   90/ 11/ 14 1021.1R
PINEY POINT MD   0000          140/ 10/ 11   N/A
CAMBRIDGE MD     0000   69 65   80/ 11/ 14 1021.5R
LEWISETTA VA     0000   71 68              1020.7R
RAPPAHANNOCK LGT 0000          130/  8/  8 1021.8R
YORK RVR RNG VA  0000   67     150/ 13/ 14 1020.2R
YORKTOWN VA      0000   72 65  140/  6/  9 1020.4R
JAMESTOWN VA     0100   70 68  140/  2/  4 1020.4R
DOMINION TERM VA 0000   71     140/  8/  8 1021.1R
KIPTOPEKE VA     0000      69  160/ 10/ 12   N/A
CHES BAY BRIDGE  0000   68 62  120/  5/  8 1021.0R
CAPE HENRY VA    0000   66     150/  7/ 10 1020.2R
CHESAPEAKE LGHT  0000   65     170/ 14/ 14 1022.1R
WILLOUBY STN VA  0000   71     150/  8/  9 1021.8R
S CRANEY ISL VA  0000          230/  2/  5 1021.1R
CAPE HENRY BUOY  0028      64                N/A     2/ 7
1ST LANDING BUOY 0100      63                N/A
CAPE CHARLES BUO 0026      62                N/A     2/ 8   2/ 8
OFFSHORE WE BUOY 0011      63                N/A     2/ 7   2/ 7
64NM E OF VA BCH 0050   64 60   70/  4/  6 1021.7R   2/ 8   2/ 8
DUCK PIER NC     0000   62 51   80/  3/  4 1020.7R
44100 DUCK FRF   0024      61                N/A     2/ 8
44056 DUCK FRF   0011      59                N/A     2/ 8
OREGON INLET NC  0000   67 71   60/  4/  9 1021.1F
HATTERAS NC      0000   70 69   90/  4/  6 1020.4F
DIAMOND SHLS NC  0050   71 74  100/ 16/ 17 1020.6S   5/ 5   2/ 8
CAPE LOOKOUT NC  0100   69      80/ 12/ 13 1020.0R
$$



USA.gov is the U.S. government's official web portal to all federal, state and local government web resources and services.